This demonstration page uses our WeatherBlox Daily Observations layout. Learn more.

Left ArrowRight Arrow

41.86663, -103.66717

Hourly Observations for May 11, 2021

Temp ( °F °C ) Dew Point ( °F °C ) Humidity (%) Winds ( mph kmh ) Pressure ( in mb ) Visibility ( mi km ) Precip ( " mm )
12:53 am 00:53 Cloudy 41 5 N/A N/A ESE 5 7 30.27 1025 10 16 0.00 0.00
1:49 am 01:49 Cloudy with Light Rain 41 5 N/A N/A ESE 6 9 30.28 1025 10 16 0.00 0.00
1:53 am 01:53 Cloudy with Light Rain 41 5 N/A N/A ESE 5 7 30.26 1025 10 16 0.00 0.00
2:53 am 02:53 Cloudy 41 5 N/A N/A E 5 7 30.24 1024 10 16 0.00 0.00
3:51 am 03:51 Cloudy 41 5 N/A N/A E 5 7 30.27 1025 10 16 0.00 0.00
3:53 am 03:53 Cloudy 41 5 N/A N/A E 6 9 30.25 1025 10 16 0.00 0.00
4:09 am 04:09 Cloudy 41 5 N/A N/A E 6 9 30.27 1025 10 16 0.00 0.00
4:53 am 04:53 Cloudy with Light Rain 41 5 N/A N/A ESE 6 9 30.26 1025 10 16 0.00 0.00
5:53 am 05:53 Cloudy with Light Rain 41 5 N/A N/A ESE 7 11 30.27 1025 8 13 0.01 0.25
6:16 am 06:16 Cloudy with Light Rain 41 5 N/A N/A ESE 9 15 30.29 1026 8 13 0.01 0.25
6:25 am 06:25 Cloudy with Light Rain 43 6 N/A N/A ESE 9 15 30.28 1025 7 11 0.01 0.25
6:36 am 06:36 Cloudy with Light Rain 43 6 N/A N/A ESE 10 17 30.28 1025 7 11 0.02 0.51
6:48 am 06:48 Cloudy with Light Rain 43 6 N/A N/A SE 12 19 30.28 1025 8 13 0.02 0.51
6:53 am 06:53 Cloudy with Light Rain 43 6 N/A N/A SE 10 17 30.28 1025 8 13 0.02 0.51
7:24 am 07:24 Cloudy 43 6 N/A N/A ESE 10 17 30.29 1026 10 16 0.00 0.00
7:53 am 07:53 Cloudy 43 6 N/A N/A SE 9 15 30.28 1025 10 16 0.00 0.00
8:53 am 08:53 Cloudy with Light Rain 45 7 N/A N/A SE 9 15 30.27 1025 8 13 0.00 0.00
9:53 am 09:53 Cloudy with Light Rain 45 7.2 40 4.4 83 83 ESE 16 26 30.28 1026 8 13 0.02 0.51
10:08 am 10:08 Cloudy 45 7 39 4 81 81 ESE 15 24 30.27 1025 10 16 0.00 0.00
10:53 am 10:53 Cloudy 47 8.3 40 4.4 77 77 ESE 16 26 30.27 1025 10 16 0.00 0.00
11:53 am 11:53 Mostly Cloudy 49 9.4 39 3.9 69 69 SE 16 26 30.27 1025 10 16 0.00 0.00
12:10 pm 12:10 Mostly Cloudy 52 11 39 4 62 62 SE 14 22 30.20 1023 10 16 0.00 0.00
12:53 pm 12:53 Mostly Cloudy 51 10.6 37 2.8 59 59 ESE 17 28 30.25 1024 10 16 0.00 0.00
1:53 pm 13:53 Cloudy with Light Rain 51 10.6 37 2.8 59 59 SE 16 26 30.25 1024 10 16 0.00 0.00
2:53 pm 14:53 Mostly Sunny 51 10.6 36 2.2 56 56 SSE 15 24 30.25 1024 10 16 0.00 0.00
3:53 pm 15:53 Partly Cloudy 53 11.7 34 1.1 48 48 SE 14 22 30.24 1024 10 16 0.00 0.00
4:53 pm 16:53 Cloudy with Rain 45 7.2 39 3.9 80 80 SE 16 26 30.29 1026 3 4 0.02 0.51
5:00 pm 17:00 Cloudy with Light Rain 44 6.7 39 3.9 83 83 ESE 20 31 30.29 1026 4 6 0.01 0.25
5:29 pm 17:29 Cloudy with Light Rain 45 7.2 40 4.4 83 83 SE 8 13 30.29 1026 10 16 0.02 0.51
5:53 pm 17:53 Cloudy with Light Rain 46 7.8 40 4.4 79 79 ESE 7 11 30.29 1026 10 16 0.02 0.51
6:50 pm 18:50 Cloudy with Light Rain 46 8 39 4 76 76 S 13 20 30.28 1025 4 6 0.00 0.00
6:53 pm 18:53 Cloudy with Light Rain 45 7.2 39 3.9 80 80 S 8 13 30.30 1026 4 6 0.00 0.00
7:30 pm 19:30 Cloudy 45 7.2 40 4.4 83 83 SE 10 17 30.29 1026 10 16 0.00 0.00
7:53 pm 19:53 Partly Cloudy 43 6.1 39 3.9 86 86 SE 9 15 30.30 1026 10 16 0.00 0.00
8:53 pm 20:53 Mostly Cloudy 42 5.6 38 3.3 85 85 SE 6 9 30.33 1027 10 16 0.00 0.00
9:53 pm 21:53 Mostly Cloudy 42 5.6 38 3.3 85 85 SSE 5 7 30.33 1027 10 16 0.00 0.00
10:53 pm 22:53 Mostly Clear 39 3.9 35 1.7 86 86 ESE 6 9 30.32 1027 10 16 0.00 0.00
11:53 pm 23:53 Mostly Cloudy 41 5 36 2.2 82 82 SSE 3 6 30.30 1026 10 16 0.00 0.00

Powered by AerisWeather